Showing default

KL-ALPHA A, 44785

Orbit data source: Space-Track

KL-ALPHA A, 44785 is a German payload satellite in LEO that was launched on Sun, 17 Nov 2019 UTC via a KUAIZHOU-1A launch vehicle from the Jiuquan Satellite Launch Center, China (JSC). Payload-class satellites include a variety of spacecraft equipped with specific instruments for various scientific and technological missions. These include communications satellites like Starlink; space stations such as the ISS; scientific satellites like the Hubble; Earth observation satellites from companies like Planet Labs, Umbra, and HawkEye 360; GPS; miniature CubeSats for education and research; and military/defense satellites.

Loading next visibility...
Identifier
44785, 2019-077A
Orbit
LEO
Country
Flag of DEDE / GER
Related business
Manufacturer
IMI/CAS
Mission
Operational Commercial Communications
Bus & Motor
KLA, Unknown motor
Mass
70 kg wet, ~65 kg dry
Launch date (UTC)
2019-11-17 (7 years ago)
Launch vehicle
KUAIZHOU-1A
Launch site
Jiuquan Satellite Launch Center, China (JSC)
Object type
Payload
Rocket body
Debris
Shape & HBR
Box + 1 Pan, Unknown HBR
Radar Cross Section
0.900 m², Medium (>0.1 m² and < 1m²)

Expand to show TLE details & history
Last TLE update: 1 day ago

TLE from 1 day ago
0 KL-ALPHA A
1 44785U 19077A   26172.54750691  .00000052  00000-0  56717-4 0  9994
2 44785  88.9243 222.0884 0013369  95.4711 264.7968 13.56043518326323
Epoch: 2026-06-21T13:08Z
TLE epoch observation values (Epoch: 2026-06-21T13:08:24.597Z)
Latitude
-0.00003°
Longitude
115.2397°
Altitude
1,053.98 km
Speed
7.324 km/s
True Right ascension
14h 48m 21s
True Declination
0° 00' 00"
Sunlit
Object was in full shadow at epoch
Visualization orbit readout
Latitude
Unknown
Longitude
Unknown
Altitude
Unknown
Speed
Unknown
Apparent Right ascension
Unknown
Apparent Declination
Unknown
Sunlit
N/A
Visualization observer readout
Local Sidereal Time
00:51:12
Azimuth
Unknown
Elevation
Unknown
Doppler factor
Unknown
Orbital elements
Apogee altitude
1,057.077 km
Perigee altitude
1,037.223 km
Semi-major axis
7,425.287 km
Eccentricity
0.00134
Inclination
88.9243°
RAAN
222.0884°
Arg. of periapsis
95.4711°
True anomaly
264.64426°
Mean anomaly
264.7968°
Eccentric anomaly
264.72053°
Mean motion
3.39214 °/min
Orbital period
106.13 mins
BSTAR
0.000056717
Loading maneuver chart data...
Computing Atmospheric mass density...
Loading historical data...
Loading historical data...
Loading historical data...
Loading historical data...
Loading historical data...
Loading historical data...
Loading historical data...
Other satellites on launch #77 in the year 2019 (2019-11-17 UTC)

Documentation

Showing up to 5 results
|